Weather History for St. Augustine, FL

Change the Weather History Date:

Wednesday, February 13, 2013

  Actual Average Record
Temperature  
Mean Temperature 72 °F -  
Max Temperature 77 °F 64 °F 77 °F (1991)
Min Temperature 66 °F 47 °F 28 °F (2006)
Cooling Degree Days 6    
Growing Degree Days 22 (Base 50)    
Moisture  
Dew Point 66 °F    
Average Humidity 81    
Maximum Humidity 94    
Minimum Humidity 59    
Precipitation  
Precipitation 0.32 in - - ()
Sea Level Pressure  
Sea Level Pressure 29.88 in    
Wind  
Wind Speed 11 mph (SW)    
Max Wind Speed 17 mph    
Max Gust Speed 25 mph    
Visibility 7 miles    
Events Rain , Thunderstorm    
Averages and records for this station are not official NWS values.
T = Trace of Precipitation, MM = Missing Value Source: NWS Daily Summary

Daily Weather History Graph

Daily Weather History Graph

Search for Another Location

Airport:

Trip Planner

Search our weather history database for the weather conditions in past years. The results will help you decide how hot, cold, wet, or windy it might be!

Date:

Astronomy

Feb. 13, 2013 Rise Set
Actual Time 7:06 AM EST 6:12 PM EST
Civil Twilight 6:42 AM EST 6:37 PM EST
Nautical Twilight 6:14 AM EST 7:05 PM EST
Astronomical Twilight 5:46 AM EST 7:33 PM EST
Moon 8:55 AM EST (2/13) 9:51 PM EST (2/13)
Length of Visible Light 11h 55m
Length of Day
11h 06m
Waxing Crescent, 13% of the Moon is Illuminated
Feb 13
Waxing Crescent
Feb 17
First Quarter
Feb 25
Full
Mar 4
Last Quarter
Mar 11
New

Hourly Weather History & Observations

Time (EST) Temp. Dew Point Humidity Pressure Visibility Wind Dir Wind Speed Gust Speed Precip Events Conditions
12:58 AM 69.1 °F 64.9 °F 87% 29.91 in 10.0 mi SW 11.5 mph - N/A   Clear
1:58 AM 69.1 °F 64.9 °F 87% 29.89 in 10.0 mi SSW 11.5 mph - N/A   Clear
2:58 AM 70.0 °F 66.0 °F 87% 29.88 in 10.0 mi SSW 11.5 mph - N/A   Mostly Cloudy
3:58 AM 71.1 °F 66.9 °F 87% 29.86 in 10.0 mi SSW 10.4 mph - N/A   Mostly Cloudy
4:58 AM 71.1 °F 66.9 °F 87% 29.86 in 10.0 mi SSW 9.2 mph - N/A   Overcast
5:38 AM 71.6 °F 66.2 °F 83% 29.86 in 10.0 mi SW 9.2 mph - N/A   Scattered Clouds
5:58 AM 71.1 °F 66.9 °F 87% 29.86 in 10.0 mi SSW 10.4 mph - N/A   Scattered Clouds
6:58 AM 71.1 °F 68.0 °F 90% 29.85 in 10.0 mi SSW 12.7 mph - N/A   Partly Cloudy
7:32 AM 71.6 °F 68.0 °F 88% 29.87 in 10.0 mi SW 9.2 mph - N/A   Mostly Cloudy
7:58 AM 72.0 °F 68.0 °F 87% 29.88 in 10.0 mi SSW 11.5 mph - N/A   Overcast
8:53 AM 75.2 °F 69.8 °F 83% 29.88 in 10.0 mi SSW 15.0 mph 21.9 mph N/A   Overcast
8:58 AM 75.0 °F 69.1 °F 82% 29.88 in 10.0 mi SSW 11.5 mph 21.9 mph N/A   Overcast
9:03 AM 75.2 °F 69.8 °F 83% 29.88 in 10.0 mi SSW 10.4 mph - N/A   Overcast
9:58 AM 75.9 °F 68.0 °F 76% 29.88 in 10.0 mi SW 15.0 mph 23.0 mph N/A   Overcast
10:58 AM 75.9 °F 68.0 °F 76% 29.89 in 10.0 mi SSW 10.4 mph 19.6 mph 0.00 in Rain Light Rain
11:03 AM 75.2 °F 69.8 °F 83% 29.89 in 2.0 mi SW 15.0 mph 20.7 mph 0.00 in Rain Light Rain
11:21 AM 71.6 °F 69.8 °F 94% 29.90 in 1.0 mi SW 15.0 mph 19.6 mph 0.11 in Rain Heavy Rain
11:41 AM 71.6 °F 69.8 °F 94% 29.88 in 2.0 mi WSW 10.4 mph 20.7 mph 0.29 in Rain Light Rain
11:51 AM 71.6 °F 69.8 °F 94% 29.89 in 3.0 mi SW 10.4 mph 16.1 mph 0.29 in Rain Light Rain
11:58 AM 72.0 °F 69.1 °F 91% 29.88 in 3.0 mi SW 8.1 mph 16.1 mph 0.30 in Rain , Thunderstorm Light Thunderstorms and Rain
12:12 PM 73.4 °F 71.6 °F 94% 29.87 in 3.0 mi SSW 9.2 mph - 0.00 in Rain , Thunderstorm Light Thunderstorms and Rain
12:15 PM 73.4 °F 71.6 °F 94% 29.88 in 3.0 mi SW 9.2 mph - 0.00 in Rain Light Rain
12:22 PM 73.4 °F 69.8 °F 88% 29.87 in 3.0 mi SW 13.8 mph - 0.00 in   Overcast
12:58 PM 73.9 °F 70.0 °F 87% 29.86 in 3.0 mi WSW 11.5 mph - 0.00 in   Overcast
1:58 PM 75.0 °F 70.0 °F 84% 29.83 in 5.0 mi WSW 12.7 mph 20.7 mph 0.00 in Rain Light Rain
2:58 PM 77.0 °F 71.1 °F 82% 29.82 in 7.0 mi West 9.2 mph 16.1 mph 0.01 in   Mostly Cloudy
3:22 PM 75.2 °F 69.8 °F 83% 29.83 in 5.0 mi West 11.5 mph 17.3 mph N/A   Haze
3:58 PM 75.9 °F 66.0 °F 71% 29.82 in 5.0 mi NW 17.3 mph 25.3 mph 0.00 in Rain Light Rain
4:02 PM 75.2 °F 62.6 °F 65% 29.83 in 10.0 mi WNW 10.4 mph 25.3 mph 0.00 in Rain Light Rain
4:25 PM 73.4 °F 60.8 °F 65% 29.83 in 7.0 mi WSW 6.9 mph - 0.00 in   Overcast
4:52 PM 73.4 °F 60.8 °F 65% 29.85 in 7.0 mi West 9.2 mph - 0.00 in   Overcast
4:58 PM 73.0 °F 61.0 °F 66% 29.85 in 7.0 mi WSW 8.1 mph - 0.00 in   Overcast
5:34 PM 69.8 °F 60.8 °F 73% 29.88 in 2.0 mi West 10.4 mph - 0.01 in Rain Light Rain
5:57 PM 68.0 °F 62.1 °F 81% 29.88 in 3.0 mi West 5.8 mph - 0.01 in   Haze
6:58 PM 68.0 °F 63.0 °F 84% 29.89 in 4.0 mi SW 8.1 mph - N/A   Haze
7:58 PM 68.0 °F 64.0 °F 87% 29.90 in 10.0 mi WSW 3.5 mph - N/A   Overcast
8:58 PM 66.9 °F 61.0 °F 81% 29.93 in 10.0 mi WNW 4.6 mph - 0.00 in   Overcast
9:58 PM 66.9 °F 52.0 °F 59% 29.95 in 10.0 mi West 4.6 mph - N/A   Overcast
10:58 PM 66.0 °F 53.1 °F 63% 29.95 in 10.0 mi SSW 4.6 mph - N/A   Overcast
11:58 PM 66.0 °F 51.1 °F 59% 29.94 in 10.0 mi WSW 5.8 mph - N/A   Overcast